This is the latest recevied weather packets stored in our database for station/object K6CQU-13. If no packets are shown the sender has not sent any weather packets the latest 10 day(s).
| Time | Temp. | Humidity | Pressure | Rain* | Wind** | Luminosity | Snow |
|---|---|---|---|---|---|---|---|
| 1787615418 | 30° C | 41% | 1011.9 hPa | 0 mm | - | 513 W/m² | - |
| 1787615118 | 30° C | 41% | 1012 hPa | 0 mm | - | 528 W/m² | - |
| 1787614818 | 30° C | 41% | 1012 hPa | 0 mm | - | 542 W/m² | - |
| 1787614518 | 30° C | 41% | 1012.1 hPa | 0 mm | - | 556 W/m² | - |
| 1787614218 | 30° C | 40% | 1012.1 hPa | 0 mm | - | 569 W/m² | - |
| 1787613918 | 30.56° C | 40% | 1012.1 hPa | 0 mm | - | 582 W/m² | - |
| 1787613618 | 30.56° C | 40% | 1012.2 hPa | 0 mm | - | 596 W/m² | - |
| 1787613318 | 30.56° C | 41% | 1012.2 hPa | 0 mm | - | 608 W/m² | - |
| 1787613018 | 30° C | 43% | 1012.3 hPa | 0 mm | - | 618 W/m² | - |
| 1787612718 | 29.44° C | 44% | 1012.4 hPa | 0 mm | - | 630 W/m² | - |
| 1787612418 | 29.44° C | 44% | 1012.5 hPa | 0 mm | - | 641 W/m² | - |
| 1787612118 | 29.44° C | 45% | 1012.5 hPa | 0 mm | - | 653 W/m² | - |
| 1787611818 | 29.44° C | 45% | 1012.5 hPa | 0 mm | - | 665 W/m² | - |
| 1787611518 | 28.89° C | 45% | 1012.5 hPa | 0 mm | - | 678 W/m² | - |
| 1787611217 | 28.89° C | 45% | 1012.5 hPa | 0 mm | - | 688 W/m² | - |
| 1787610918 | 28.89° C | 46% | 1012.6 hPa | 0 mm | - | 698 W/m² | - |
| 1787610617 | 28.89° C | 47% | 1012.6 hPa | 0 mm | - | 708 W/m² | - |
| 1787610318 | 28.89° C | 48% | 1012.6 hPa | 0 mm | - | 717 W/m² | - |
| 1787610018 | 28.89° C | 47% | 1012.6 hPa | 0 mm | - | 726 W/m² | - |
| 1787609717 | 28.89° C | 47% | 1012.7 hPa | 0 mm | - | 735 W/m² | - |
| 1787609417 | 28.89° C | 48% | 1012.7 hPa | 0 mm | - | 746 W/m² | - |
| 1787609118 | 28.89° C | 47% | 1012.8 hPa | 0 mm | - | 754 W/m² | - |
| 1787608818 | 28.89° C | 46% | 1012.7 hPa | 0 mm | - | 762 W/m² | - |
| 1787608518 | 28.89° C | 47% | 1012.9 hPa | 0 mm | - | 769 W/m² | - |
| 1787608218 | 28.89° C | 47% | 1012.8 hPa | 0 mm | - | 775 W/m² | - |
* Rain latest hour (hover to see other rain measurements)
** Current wind speed in m/s (hover to see current wind gust speed)